Temperature
10 10 10 10 10 10 10 10 10 10 10 10 10 10 11 11 11 11 11 11 11 11 11 11 11 11 11 11 11 11 11 11 11 11 11 11 11 11 11 11 11 11 11
9 9 9 9 9 9 10 10 9 9 9 10 10 10 10 10 10 11 11 11 11 11 11 11 11 11 11 11 11 11 11 11 11 11 11 11 11 11 11 11 11 10 10
9 9 9 9 9 9 9 9 9 9 9 9 9 9 10 10 10 10 10 10 11 11 11 11 11 11 11 11 11 11 11 11 11 11 11 11 10 10 10 10 10 10 10
8 8 8 8 8 8 8 9 9 9 9 9 9 9 9 10 10 10 10 10 10 10 10 11 10 11 11 11 11 11 11 11 11 11 11 10 10 10 10 10 10 10 10
7 8 8 8 8 8 8 8 8 8 8 8 8 9 9 9 9 9 10 10 10 10 10 10 10 10 10 10 10 10 11 10 10 10 10 10 10 10 10 10 10 10 10
7 7 7 7 7 7 7 7 8 7 8 8 8 8 8 9 9 9 9 9 9 10 10 10 10 10 10 10 10 10 10 10 10 10 10 10 10 10 10 10 10 10 10
6 7 7 7 7 7 7 7 7 7 7 7 7 8 8 8 9 9 9 9 9 9 9 9 9 10 10 10 10 10 10 10 10 10 10 10 10 10 9 9 9 10 10
6 6 6 6 6 6 6 6 6 6 6 6 6 6 7 7 8 8 8 8 9 9 9 9 9 9 9 10 10 10 10 10 10 10 9 9 9 9 9 9 9 9 9
5 5 6 6 6 6 6 6 6 6 6 6 6 6 6 6 6 7 7 8 8 8 8 8 9 9 9 9 9 9 9 9 9 9 9 9 9 9 9 9 9 9 9
5 5 5 5 5 5 5 5 5 5 5 5 5 6 6 6 5 5 6 7 7 8 8 8 8 8 8 9 9 9 9 9 9 9 9 9 9 9 9 9 9 9 9
4 4 4 4 4 5 5 5 5 5 5 5 5 5 5 5 5 5 5 6 6 7 7 7 8 8 8 8 8 9 9 9 9 9 9 9 9 8 8 8 8 8 8
3 3 3 4 4 4 4 4 4 4 4 4 4 4 4 4 5 5 4 5 5 6 6 7 7 7 8 8 8 8 8 8 8 8 8 8 8 8 8 8 8 8 8
3 3 3 3 3 3 4 4 4 4 4 4 4 4 4 4 4 4 4 4 4 5 5 6 6 7 7 7 8 8 8 8 8 8 8 8 8 8 8 8 8 8 8
2 2 2 3 3 3 3 3 3 3 3 4 4 4 4 4 4 4 4 4 3 4 4 5 6 6 6 7 7 7 7 7 7 7 7 7 7 7 7 8 8 8 7
1 1 2 2 2 3 3 3 3 3 3 3 3 3 3 3 3 4 4 4 3 3 3 4 5 6 6 6 6 6 6 7 7 7 7 7 7 7 7 7 7 7 7
1 1 1 1 2 2 2 2 2 2 3 3 3 3 3 3 3 3 3 3 3 3 3 4 4 5 5 5 5 5 6 6 6 6 6 7 7 7 7 7 7 7 7
0 0 1 1 1 1 2 2 2 2 2 2 2 2 2 2 3 3 3 3 3 3 3 3 3 4 4 4 4 5 5 5 6 6 6 6 6 6 6 6 6 6 6
-0 -0 0 0 0 1 1 1 1 1 1 1 2 2 2 2 2 2 2 2 2 2 2 3 3 3 4 4 4 4 4 5 5 5 5 6 6 6 6 6 6 6 6
-1 -1 -0 -0 -0 0 0 0 0 1 1 1 1 1 1 1 2 2 2 2 2 2 2 2 2 3 3 3 3 3 4 4 4 5 5 5 5 5 5 5 5 5 5
-1 -1 -1 -1 -1 -0 -0 -0 -0 -0 -0 0 0 1 1 1 1 1 1 1 2 2 2 2 2 2 2 2 2 3 3 3 4 4 4 4 4 4 5 5 5 5 5
-2 -2 -1 -1 -1 -1 -1 -1 -1 -1 -1 -1 -0 -0 0 1 1 1 1 1 1 1 1 1 1 1 1 2 2 2 2 3 3 3 3 4 4 4 4 4 4 4 4
-2 -2 -2 -2 -2 -1 -1 -1 -1 -2 -1 -1 -1 -1 -0 -0 0 0 1 1 1 1 1 1 1 1 1 1 2 2 2 2 2 3 3 3 3 3 3 3 4 4 4
-3 -2 -2 -2 -2 -2 -2 -2 -2 -2 -2 -2 -1 -1 -1 -1 -1 -0 0 0 0 0 1 1 1 1 1 1 1 1 1 2 2 2 2 2 3 3 3 3 3 3 3
-3 -3 -3 -3 -3 -2 -2 -2 -2 -2 -2 -2 -2 -2 -1 -1 -1 -1 -0 -0 -0 0 0 0 1 1 1 1 1 1 1 1 1 2 2 1 2 2 3 3 3 3 3
-3 -3 -3 -3 -3 -3 -3 -3 -3 -3 -2 -2 -2 -2 -2 -1 -1 -1 -1 -1 -1 -0 -0 -0 0 0 0 0 0 0 0 0 0 1 1 1 1 1 2 2 2 2 2
-4 -4 -4 -4 -4 -4 -4 -3 -3 -3 -3 -3 -2 -2 -2 -2 -1 -1 -1 -1 -1 -1 -1 -0 -0 -0 -0 -0 -0 -0 -0 -0 -0 -0 0 0 0 0 0 1 2 2 2
Wind_Speed
4 3 3 3 3 2 2 2 2 2 2 2 3 3 2 2 3 3 4 5 5 5 5 5 5 5 5 5 7 8 8 8 8 7 8 8 8 8 8 8 9 9 9
4 3 3 3 3 3 2 2 2 2 2 2 2 2 2 2 2 3 4 4 4 5 5 5 4 5 5 5 6 7 7 7 7 7 7 7 7 7 7 7 7 8 8
4 4 3 3 3 3 2 1 2 2 2 1 2 2 3 2 1 2 3 3 4 4 5 4 4 4 5 6 6 7 7 7 7 6 6 7 7 7 7 7 6 6 7
4 4 3 2 3 3 2 2 1 1 1 1 1 2 2 2 1 1 3 3 4 4 5 5 4 4 5 6 7 7 8 8 7 6 6 7 7 7 7 7 6 6 6
3 3 2 3 3 3 2 1 1 1 1 1 1 1 2 2 1 0 2 3 3 4 5 5 5 5 4 5 6 7 8 9 8 7 7 6 7 7 7 7 7 6 6
3 2 2 2 2 2 1 0 0 0 0 0 1 2 2 2 1 2 2 3 3 4 4 5 5 5 5 5 6 8 8 9 9 9 8 7 7 7 8 8 7 7 6
3 2 1 2 2 1 1 1 0 0 0 0 0 1 2 3 3 2 2 2 3 3 4 4 5 5 5 6 7 8 8 9 10 10 9 8 8 8 8 8 8 7 7
3 2 2 1 1 1 1 1 0 0 1 0 1 0 1 1 1 1 1 2 2 2 2 3 4 4 5 5 6 8 8 9 10 10 10 9 9 8 9 9 8 8 7
3 2 2 1 1 1 1 1 1 1 1 1 1 1 1 1 1 2 1 0 1 1 0 1 2 3 4 5 5 7 8 8 10 11 11 11 10 10 9 9 9 8 8
3 2 2 1 1 1 2 2 2 1 2 2 2 2 1 1 1 1 1 1 1 1 1 1 0 1 2 3 4 6 8 8 9 11 11 11 11 11 11 10 10 10 9
2 2 2 2 1 1 2 2 2 2 2 2 2 2 2 1 2 2 2 2 2 2 1 1 1 1 2 3 4 5 7 9 8 9 10 11 11 11 11 11 10 10 9
2 2 2 2 2 2 2 2 3 3 3 3 3 2 2 2 2 2 3 3 3 3 2 1 1 1 2 3 3 2 5 8 9 8 9 9 9 10 11 11 10 10 9
2 3 2 2 2 2 3 3 3 3 4 4 4 3 3 3 2 2 3 3 3 3 2 2 2 2 3 3 3 3 3 6 7 8 9 9 9 8 9 9 9 10 9
3 3 3 3 3 3 4 3 3 4 4 4 5 4 3 4 3 3 3 3 3 3 3 3 2 3 3 4 4 4 3 4 5 7 7 8 7 7 7 9 9 9 9
4 4 4 4 4 3 3 4 4 4 4 4 4 5 4 4 4 3 3 4 4 4 5 4 2 2 3 3 4 5 5 5 5 5 7 8 8 7 6 6 7 7 7
4 4 4 4 4 4 4 4 4 4 4 5 4 4 5 4 4 3 4 3 4 5 6 3 3 3 3 4 5 5 6 6 6 7 7 8 8 8 8 8 7 7 7
4 5 5 5 5 4 4 4 5 5 5 5 5 5 6 5 5 4 4 4 4 4 7 5 3 3 3 3 4 4 5 6 7 8 9 9 8 9 9 9 9 8 8
5 5 5 5 5 5 5 5 6 6 6 6 6 6 6 6 6 5 5 6 5 5 6 7 5 3 4 4 4 4 4 6 6 9 10 10 10 9 10 10 10 9 8
5 5 5 6 6 6 6 6 6 7 7 7 7 7 7 6 7 6 6 6 6 6 5 6 6 4 3 3 3 3 4 5 6 8 10 10 10 10 11 11 11 11 10
6 6 6 6 6 6 7 7 6 7 7 7 7 7 8 8 8 7 7 7 6 6 6 6 5 4 4 3 3 4 4 5 5 5 6 8 10 11 11 12 12 12 11
6 6 6 6 6 6 7 7 6 7 7 7 8 8 9 10 11 10 8 7 7 7 6 6 6 5 5 5 5 4 6 5 5 4 4 5 6 6 8 11 12 13 13
5 6 6 6 7 7 9 10 8 7 7 8 9 9 9 10 11 13 13 13 12 10 9 8 7 8 8 7 6 6 5 4 5 3 4 6 5 6 6 7 10 12 13
5 6 6 6 7 8 10 11 11 8 8 8 9 9 9 9 10 9 11 12 13 15 14 11 11 11 10 9 7 7 7 7 6 4 4 5 4 6 6 9 11 12 13
5 6 7 7 7 8 10 10 11 8 8 9 9 9 10 10 10 10 9 10 10 11 13 12 11 11 10 9 9 9 8 6 3 3 4 5 4 5 6 7 10 12 12
6 6 7 7 7 8 10 10 10 6 7 9 9 9 9 10 12 12 10 10 11 10 11 13 14 13 14 13 10 6 6 5 5 5 4 4 3 3 4 5 8 11 12
6 7 7 7 7 7 10 11 10 6 7 8 8 9 11 12 13 12 10 10 11 10 7 7 8 9 10 11 13 10 9 7 5 4 4 4 3 2 3 3 4 5 7
Wind_Direction
17 19 29 30 19 33 37 6 360 2 8 357 359 21 36 56 86 103 122 139 147 150 150 151 154 157 158 153 152 142 135 128 127 126 123 123 117 112 112 106 102 100 100
16 14 17 15 14 21 24 357 11 9 358 0 3 7 10 34 90 111 134 149 159 162 166 161 162 171 171 167 159 155 150 144 139 139 137 135 131 127 124 120 114 108 103
20 15 14 10 11 12 7 6 29 28 9 5 355 360 4 7 75 139 152 159 167 170 174 173 171 178 181 184 177 172 167 157 151 151 154 149 147 146 141 135 130 122 116
19 19 13 3 14 16 2 11 59 52 15 356 338 325 348 352 4 173 159 170 172 175 179 181 183 183 186 192 194 189 182 172 168 165 164 165 163 161 158 152 147 140 131
18 21 8 0 15 11 360 13 34 43 30 5 325 303 308 294 289 208 159 172 180 177 173 182 188 194 202 203 203 200 192 184 181 179 175 174 177 177 175 169 165 157 149
7 12 8 2 9 7 354 27 60 359 42 43 317 294 278 267 243 213 191 174 177 177 180 186 186 197 209 213 216 209 202 195 190 188 186 183 185 186 185 181 177 173 169
354 353 352 2 357 320 312 316 95 53 354 79 29 309 295 264 234 215 179 167 163 180 184 188 188 191 197 211 219 217 212 204 199 194 194 193 194 196 194 191 190 189 188
347 337 344 323 330 319 315 304 115 249 283 111 150 209 302 308 337 284 207 182 176 152 164 198 193 193 192 195 212 218 219 212 204 200 198 198 196 199 202 201 196 196 196
331 346 333 309 284 270 245 272 217 211 227 246 211 195 177 222 305 296 284 187 132 121 212 214 208 197 195 192 201 213 220 221 214 209 207 206 206 207 209 209 206 206 207
328 332 321 310 274 254 243 255 247 217 208 232 254 268 261 202 194 252 299 328 350 321 302 322 258 201 204 204 207 204 209 217 222 220 215 214 212 212 214 216 216 218 217
311 319 319 315 283 274 255 253 259 232 216 229 239 259 271 259 232 200 242 269 284 269 280 321 311 232 220 221 214 209 202 208 219 221 219 220 220 219 219 220 222 223 223
284 294 308 311 291 276 265 259 259 238 228 238 249 245 230 218 218 214 224 246 266 270 275 277 269 246 225 226 227 237 204 205 214 219 220 220 224 224 223 222 225 226 226
275 269 293 289 285 278 275 271 259 249 235 233 237 246 242 237 239 246 229 247 270 282 266 256 253 239 234 228 230 239 213 207 211 220 225 224 225 227 224 222 227 229 226
250 268 276 279 282 280 275 266 258 256 248 237 240 243 249 244 240 229 225 232 262 278 261 251 261 228 227 228 228 232 232 219 214 217 225 228 226 224 226 222 223 224 222
258 260 269 271 274 273 269 264 251 251 248 242 237 240 246 244 238 234 221 208 224 256 264 247 235 228 222 229 236 230 229 225 225 220 225 225 223 220 224 226 225 225 224
256 252 252 260 265 266 265 260 256 255 252 245 240 241 245 243 236 228 225 231 228 235 257 246 246 245 229 243 251 243 234 231 225 223 225 224 221 219 222 226 225 225 224
249 247 249 253 256 257 257 256 258 259 256 253 249 245 245 240 234 227 225 227 231 230 251 262 256 223 225 241 250 246 247 235 232 228 226 223 226 224 221 222 222 225 228
252 252 251 250 253 256 252 249 255 258 252 253 250 249 249 242 235 229 226 230 233 234 241 249 250 237 229 222 233 238 257 247 239 237 230 225 226 229 225 224 222 225 228
252 255 250 250 251 254 254 253 250 254 253 253 253 249 250 241 242 236 229 233 236 241 241 236 245 245 242 226 229 250 260 249 239 240 235 230 229 231 231 228 227 228 229
248 246 246 248 249 252 256 256 256 258 258 258 257 255 252 244 240 237 235 233 233 235 236 230 238 242 242 231 217 235 258 246 236 240 244 241 238 238 238 233 232 232 231
254 251 251 251 248 250 250 251 253 257 259 262 261 256 255 250 246 243 240 234 229 232 232 229 234 243 240 227 227 231 242 243 238 232 236 238 232 234 239 238 235 234 234
256 258 257 254 252 256 260 264 262 256 258 259 263 262 261 255 250 251 249 242 235 231 231 231 236 233 236 234 232 225 232 236 248 223 220 243 225 235 239 239 237 235 235
257 259 259 255 254 257 263 265 265 259 254 254 257 262 265 262 253 246 249 248 243 240 236 234 232 234 233 227 223 224 230 233 244 216 211 245 235 242 248 247 240 236 236
261 261 260 254 257 263 269 270 270 263 257 257 255 256 258 256 252 248 248 248 244 241 239 236 235 236 232 226 221 225 232 243 260 227 204 239 241 244 251 243 239 236 239
268 265 262 257 256 260 267 270 271 259 261 262 261 259 259 254 257 254 249 249 250 249 244 239 242 242 236 230 225 221 226 223 247 244 210 224 241 253 256 247 243 241 238
267 269 270 263 259 259 268 273 273 258 263 267 264 260 258 258 259 253 244 242 246 250 242 239 240 238 231 224 222 218 218 219 234 241 212 207 222 227 263 257 247 249 242
Height
1526 1527 1528 1529 1529 1530 1531 1532 1532 1533 1534 1536 1537 1538 1539 1540 1541 1542 1543 1544 1546 1547 1548 1549 1550 1551 1552 1553 1555 1556 1557 1558 1559 1560 1560 1561 1562 1562 1563 1564 1564 1565 1565
1525 1525 1526 1527 1527 1528 1529 1530 1530 1531 1532 1534 1535 1536 1537 1538 1539 1540 1541 1542 1544 1545 1547 1548 1549 1550 1551 1552 1554 1555 1556 1557 1558 1559 1560 1560 1561 1562 1563 1563 1564 1564 1565
1523 1524 1524 1525 1525 1526 1527 1528 1528 1529 1530 1531 1532 1533 1534 1536 1537 1538 1539 1540 1541 1543 1545 1546 1547 1548 1549 1550 1552 1553 1554 1555 1557 1557 1558 1559 1560 1561 1562 1562 1563 1564 1564
1521 1522 1522 1523 1523 1524 1525 1525 1526 1527 1528 1528 1529 1530 1532 1533 1534 1535 1536 1537 1539 1540 1542 1544 1545 1546 1547 1548 1550 1551 1552 1554 1555 1556 1557 1558 1558 1559 1560 1561 1562 1563 1563
1518 1519 1520 1521 1521 1522 1522 1523 1524 1524 1524 1525 1526 1527 1528 1530 1531 1532 1533 1535 1536 1537 1539 1541 1542 1544 1545 1546 1548 1549 1550 1551 1552 1554 1555 1556 1557 1558 1559 1560 1561 1562 1562
1516 1516 1517 1518 1519 1519 1520 1520 1521 1522 1522 1523 1523 1524 1525 1526 1527 1529 1530 1532 1533 1534 1536 1538 1539 1541 1542 1543 1545 1546 1547 1549 1550 1551 1553 1554 1555 1556 1557 1558 1559 1560 1561
1513 1514 1514 1515 1516 1516 1517 1518 1518 1519 1519 1520 1521 1521 1522 1523 1524 1526 1527 1529 1530 1531 1533 1534 1536 1538 1539 1540 1542 1543 1544 1546 1547 1548 1550 1551 1552 1554 1555 1556 1557 1558 1559
1510 1510 1511 1511 1512 1513 1514 1514 1515 1516 1516 1518 1518 1518 1519 1520 1521 1522 1524 1525 1527 1528 1529 1531 1533 1534 1536 1537 1538 1540 1541 1543 1544 1546 1547 1548 1549 1551 1552 1553 1554 1555 1556
1507 1507 1507 1508 1509 1510 1510 1511 1512 1513 1514 1515 1517 1518 1518 1517 1517 1519 1520 1522 1523 1525 1526 1527 1529 1530 1532 1534 1535 1536 1538 1539 1541 1542 1544 1545 1546 1547 1549 1550 1551 1552 1553
1504 1504 1504 1505 1506 1506 1507 1508 1509 1510 1511 1512 1514 1515 1516 1516 1516 1515 1516 1518 1520 1521 1522 1523 1525 1526 1528 1530 1531 1533 1534 1536 1537 1539 1540 1541 1542 1544 1545 1546 1548 1549 1550
1500 1501 1501 1501 1502 1503 1504 1504 1505 1507 1508 1509 1510 1511 1512 1513 1513 1513 1513 1514 1515 1517 1518 1520 1521 1522 1524 1526 1527 1529 1530 1531 1533 1535 1536 1537 1538 1539 1541 1542 1544 1545 1546
1496 1497 1497 1498 1499 1499 1500 1501 1501 1503 1504 1505 1507 1508 1509 1509 1509 1510 1510 1510 1511 1512 1514 1515 1517 1518 1520 1521 1523 1524 1525 1527 1529 1530 1531 1532 1534 1535 1536 1538 1539 1540 1541
1492 1493 1494 1494 1495 1496 1496 1497 1498 1499 1500 1501 1502 1504 1505 1506 1507 1507 1508 1508 1508 1508 1509 1511 1512 1514 1515 1517 1518 1519 1521 1522 1524 1525 1526 1528 1529 1530 1531 1532 1534 1535 1537
1489 1490 1490 1491 1491 1492 1492 1493 1494 1495 1496 1497 1498 1499 1501 1502 1503 1504 1504 1505 1505 1505 1505 1506 1507 1509 1510 1511 1513 1514 1515 1517 1518 1520 1521 1523 1524 1525 1526 1527 1529 1530 1531
1485 1486 1486 1487 1487 1488 1488 1489 1490 1490 1492 1492 1494 1495 1496 1497 1499 1499 1500 1502 1503 1501 1500 1501 1503 1504 1505 1506 1508 1509 1510 1511 1513 1514 1515 1517 1518 1520 1521 1522 1524 1525 1526
1481 1481 1482 1482 1483 1483 1484 1484 1485 1486 1487 1488 1489 1490 1491 1492 1493 1495 1496 1497 1498 1498 1497 1496 1498 1499 1500 1501 1503 1504 1505 1506 1507 1508 1510 1511 1513 1514 1516 1517 1518 1519 1521
1476 1476 1477 1477 1478 1479 1479 1480 1480 1481 1482 1483 1484 1485 1486 1488 1488 1489 1491 1492 1493 1494 1492 1491 1493 1494 1495 1496 1497 1498 1499 1500 1501 1503 1504 1506 1507 1508 1510 1511 1512 1514 1515
1471 1471 1472 1472 1473 1473 1474 1475 1475 1476 1476 1477 1478 1479 1480 1482 1483 1484 1485 1486 1487 1488 1488 1487 1487 1488 1489 1491 1492 1493 1493 1495 1496 1497 1498 1500 1501 1502 1504 1505 1506 1508 1509
1465 1466 1466 1467 1467 1468 1469 1469 1470 1471 1471 1472 1473 1474 1475 1476 1477 1478 1479 1480 1481 1482 1483 1482 1481 1483 1484 1485 1486 1487 1488 1488 1489 1491 1492 1493 1495 1496 1497 1499 1500 1501 1503
1459 1460 1460 1461 1462 1462 1463 1464 1464 1465 1465 1466 1467 1468 1469 1470 1471 1472 1473 1474 1475 1476 1476 1476 1476 1477 1478 1479 1480 1480 1481 1482 1483 1484 1485 1487 1488 1489 1491 1492 1494 1495 1496
1454 1454 1455 1455 1456 1457 1457 1458 1458 1459 1460 1460 1461 1462 1462 1463 1464 1466 1467 1467 1468 1469 1469 1470 1470 1471 1471 1472 1473 1474 1475 1476 1476 1477 1478 1480 1482 1483 1484 1485 1487 1488 1489
1448 1449 1449 1449 1450 1451 1452 1453 1453 1454 1454 1454 1454 1455 1456 1456 1457 1458 1460 1461 1462 1462 1463 1463 1463 1463 1464 1466 1467 1469 1469 1469 1468 1471 1472 1473 1475 1475 1477 1479 1480 1481 1483
1442 1443 1443 1443 1444 1444 1446 1447 1448 1448 1448 1448 1448 1448 1448 1449 1450 1451 1451 1452 1453 1454 1456 1456 1456 1455 1457 1459 1460 1461 1462 1463 1462 1464 1467 1466 1468 1469 1470 1472 1473 1475 1476
1437 1437 1437 1438 1437 1438 1439 1440 1441 1442 1441 1441 1441 1442 1442 1442 1443 1444 1444 1444 1445 1445 1447 1448 1449 1449 1451 1452 1454 1455 1456 1456 1457 1458 1460 1460 1460 1462 1464 1465 1466 1468 1469
1432 1431 1432 1432 1432 1432 1433 1434 1435 1435 1434 1434 1434 1434 1435 1435 1435 1437 1437 1437 1437 1437 1439 1440 1441 1442 1443 1445 1447 1449 1449 1449 1448 1450 1453 1453 1454 1455 1456 1457 1459 1461 1462
1427 1427 1426 1426 1426 1426 1427 1428 1429 1429 1428 1427 1427 1427 1427 1428 1428 1429 1430 1429 1429 1429 1431 1432 1433 1435 1436 1437 1439 1441 1441 1442 1442 1443 1444 1447 1448 1449 1449 1450 1453 1454 1455